Weather History for Kake, AK

Change the Weather History Date:

Monday, May 20, 2013

  Actual Average Record
Temperature  
Mean Temperature 42 °F -  
Max Temperature 51 °F 52 °F 73 °F (2002)
Min Temperature 33 °F 39 °F 33 °F (2003)
Degree Days  
Heating Degree Days 23    
Moisture  
Dew Point 30 °F    
Average Humidity 62    
Maximum Humidity 87    
Minimum Humidity 38    
Precipitation  
Precipitation 0.00 in - - ()
Sea Level Pressure  
Sea Level Pressure 30.42 in    
Wind  
Wind Speed 5 mph (North)    
Max Wind Speed 15 mph    
Max Gust Speed 23 mph    
Visibility 10 miles    
Events      
Averages and records for this station are not official NWS values.
T = Trace of Precipitation, MM = Missing Value Source: NWS Daily Summary

Daily Weather History Graph

Daily Weather History Graph

Search for Another Location

Airport:

Trip Planner

Search our weather history database for the weather conditions in past years. The results will help you decide how hot, cold, wet, or windy it might be!

Date:

Astronomy

May. 20, 2013 Rise Set
Actual Time 4:27 AM AKDT 9:18 PM AKDT
Civil Twilight 3:32 AM AKDT 10:13 PM AKDT
Nautical Twilight 1:51 AM AKDT 11:59 PM AKDT
Astronomical Twilight Sun does not rise Sun does not rise
Moon 3:39 PM AKDT 2:27 AM AKDT
Length of Visible Light 18h 41m
Length of Day
16h 50m
Waxing Gibbous, 76% of the Moon is Illuminated
May 20
Waxing Gibbous
May 24
Full
May 31
Last Quarter
Jun 8
New
Jun 16
First Quarter

Hourly Weather History & Observations

Time (AKDT) Temp. Windchill Dew Point Humidity Pressure Visibility Wind Dir Wind Speed Gust Speed Precip Events Conditions
12:16 AM 37.4 °F - 33.8 °F 87% 30.53 in 10.0 mi Calm Calm - N/A   Overcast
12:36 AM 37.4 °F - 32.0 °F 81% 30.53 in 10.0 mi Calm Calm - N/A   Overcast
1:16 AM 35.6 °F - 32.0 °F 87% 30.53 in 10.0 mi Calm Calm - N/A   Mostly Cloudy
1:36 AM 35.6 °F 31.7 °F 32.0 °F 87% 30.53 in 10.0 mi NE 4.6 mph - N/A   Scattered Clouds
1:56 AM 33.8 °F 30.8 °F 30.2 °F 87% 30.53 in 10.0 mi NE 3.5 mph - N/A   Partly Cloudy
2:16 AM 33.8 °F 29.6 °F 30.2 °F 87% 30.52 in 10.0 mi ENE 4.6 mph - N/A   Partly Cloudy
2:36 AM 35.6 °F 32.8 °F 30.2 °F 81% 30.52 in 10.0 mi NNE 3.5 mph - N/A   Mostly Cloudy
2:56 AM 35.6 °F - 32.0 °F 87% 30.52 in 10.0 mi Calm Calm - N/A   Overcast
3:16 AM 35.6 °F 32.8 °F 30.2 °F 81% 30.52 in 10.0 mi North 3.5 mph - N/A   Mostly Cloudy
3:36 AM 33.8 °F 29.6 °F 30.2 °F 87% 30.51 in 10.0 mi NNE 4.6 mph - N/A   Partly Cloudy
3:56 AM 35.6 °F 30.7 °F 30.2 °F 81% 30.51 in 10.0 mi ENE 5.8 mph - N/A   Mostly Cloudy
4:16 AM 33.8 °F 28.6 °F 30.2 °F 87% 30.51 in 10.0 mi ENE 5.8 mph - N/A   Overcast
4:36 AM 33.8 °F 28.6 °F 30.2 °F 87% 30.51 in 10.0 mi ENE 5.8 mph - N/A   Overcast
4:56 AM 33.8 °F 28.6 °F 30.2 °F 87% 30.51 in 10.0 mi ENE 5.8 mph - N/A   Mostly Cloudy
5:16 AM 35.6 °F 32.8 °F 30.2 °F 81% 30.51 in 10.0 mi ENE 3.5 mph - N/A   Overcast
5:36 AM 35.6 °F 32.8 °F 32.0 °F 87% 30.50 in 10.0 mi ENE 3.5 mph - N/A   Scattered Clouds
5:56 AM 35.6 °F 32.8 °F 32.0 °F 87% 30.50 in 10.0 mi NW 3.5 mph - N/A   Mostly Cloudy
6:16 AM 37.4 °F - 33.8 °F 87% 30.50 in 10.0 mi Calm Calm - N/A   Mostly Cloudy
6:36 AM 37.4 °F - 33.8 °F 87% 30.50 in 10.0 mi Calm Calm - N/A   Scattered Clouds
6:56 AM 39.2 °F - 33.8 °F 81% 30.49 in 10.0 mi Calm Calm - N/A   Mostly Cloudy
7:16 AM 39.2 °F - 33.8 °F 81% 30.49 in 10.0 mi Calm Calm - N/A   Overcast
7:36 AM 39.2 °F 35.9 °F 33.8 °F 81% 30.49 in 10.0 mi NNW 4.6 mph - N/A   Overcast
7:56 AM 39.2 °F 35.0 °F 30.2 °F 70% 30.49 in 10.0 mi NW 5.8 mph - N/A   Mostly Cloudy
8:16 AM 41.0 °F 37.1 °F 30.2 °F 65% 30.49 in 10.0 mi North 5.8 mph - N/A   Overcast
8:36 AM 41.0 °F 35.2 °F 32.0 °F 70% 30.48 in 10.0 mi NW 9.2 mph - N/A   Overcast
8:56 AM 42.8 °F 38.6 °F 33.8 °F 70% 30.48 in 10.0 mi NNW 6.9 mph - N/A   Overcast
9:16 AM 42.8 °F - 32.0 °F 66% 30.47 in 10.0 mi Calm Calm - N/A   Mostly Cloudy
9:36 AM 42.8 °F 37.5 °F 32.0 °F 66% 30.47 in 10.0 mi NNW 9.2 mph - N/A   Overcast
9:56 AM 42.8 °F 37.5 °F 32.0 °F 66% 30.46 in 10.0 mi NNW 9.2 mph 18.4 mph N/A   Overcast
10:16 AM 44.6 °F 42.2 °F 30.2 °F 57% 30.46 in 10.0 mi North 4.6 mph - N/A   Overcast
10:56 AM 44.6 °F 38.4 °F 30.2 °F 57% 30.45 in 10.0 mi NNW 12.7 mph 18.4 mph N/A   Mostly Cloudy
11:16 AM 44.6 °F 40.7 °F 30.2 °F 57% 30.45 in 10.0 mi North 6.9 mph - N/A   Mostly Cloudy
11:36 AM 44.6 °F 39.7 °F 32.0 °F 61% 30.44 in 10.0 mi North 9.2 mph - N/A   Mostly Cloudy
11:56 AM 44.6 °F 38.8 °F 32.0 °F 61% 30.43 in 10.0 mi NW 11.5 mph - N/A   Overcast
12:16 PM 44.6 °F 39.7 °F 33.8 °F 66% 30.43 in 10.0 mi NNW 9.2 mph - N/A   Mostly Cloudy
12:36 PM 44.6 °F 40.2 °F 33.8 °F 66% 30.43 in 10.0 mi NNW 8.1 mph - N/A   Overcast
12:56 PM 44.6 °F 41.4 °F 33.8 °F 66% 30.42 in 10.0 mi North 5.8 mph - N/A   Overcast
1:16 PM 44.6 °F 40.7 °F 33.8 °F 66% 30.42 in 10.0 mi NNW 6.9 mph - N/A   Mostly Cloudy
1:36 PM 44.6 °F 38.8 °F 33.8 °F 66% 30.41 in 10.0 mi North 11.5 mph 16.1 mph N/A   Mostly Cloudy
1:56 PM 46.4 °F 41.5 °F 35.6 °F 66% 30.40 in 10.0 mi North 10.4 mph - N/A   Mostly Cloudy
2:16 PM 46.4 °F 41.1 °F 35.6 °F 66% 30.40 in 10.0 mi North 11.5 mph - N/A   Overcast
2:36 PM 48.2 °F - 35.6 °F 62% 30.39 in 10.0 mi North 10.4 mph - N/A   Overcast
2:56 PM 46.4 °F 41.9 °F 33.8 °F 62% 30.38 in 10.0 mi North 9.2 mph - N/A   Overcast
3:16 PM 48.2 °F - 33.8 °F 58% 30.38 in 10.0 mi NNW 8.1 mph 17.3 mph N/A   Overcast
3:36 PM 48.2 °F - 33.8 °F 58% 30.37 in 10.0 mi NNW 9.2 mph 16.1 mph N/A   Mostly Cloudy
3:56 PM 51.8 °F - 32.0 °F 47% 30.36 in 10.0 mi NNW 10.4 mph 16.1 mph N/A   Mostly Cloudy
4:16 PM 51.8 °F - 30.2 °F 44% 30.36 in 10.0 mi NNW 12.7 mph 18.4 mph N/A   Partly Cloudy
4:36 PM 51.8 °F - 30.2 °F 44% 30.36 in 10.0 mi North 8.1 mph 17.3 mph N/A   Partly Cloudy
4:56 PM 51.8 °F - 28.4 °F 41% 30.35 in 10.0 mi North 9.2 mph - N/A   Partly Cloudy
5:16 PM 51.8 °F - 28.4 °F 41% 30.35 in 10.0 mi NNE 10.4 mph 18.4 mph N/A   Partly Cloudy
5:36 PM 51.8 °F - 28.4 °F 41% 30.35 in 10.0 mi NNE 8.1 mph 18.4 mph N/A   Clear
5:56 PM 51.8 °F - 28.4 °F 41% 30.34 in 10.0 mi NNW 15.0 mph 21.9 mph N/A   Clear
6:16 PM 51.8 °F - 28.4 °F 41% 30.34 in 10.0 mi North 8.1 mph 21.9 mph N/A   Clear
6:36 PM 51.8 °F - 28.4 °F 41% 30.33 in 10.0 mi North 9.2 mph - N/A   Clear
6:56 PM 51.8 °F - 26.6 °F 38% 30.33 in 10.0 mi North 10.4 mph 18.4 mph N/A   Clear
7:16 PM 51.8 °F - 26.6 °F 38% 30.33 in 10.0 mi NNW 10.4 mph 17.3 mph N/A   Clear
7:36 PM 51.8 °F - 26.6 °F 38% 30.32 in 10.0 mi NNW 10.4 mph - N/A   Clear
7:56 PM 50.0 °F - 26.6 °F 40% 30.32 in 10.0 mi North 9.2 mph 17.3 mph N/A   Clear
8:16 PM 50.0 °F - 26.6 °F 40% 30.32 in 10.0 mi NNW 12.7 mph 17.3 mph N/A   Scattered Clouds
8:36 PM 48.2 °F - 24.8 °F 40% 30.32 in 10.0 mi North 9.2 mph 16.1 mph N/A   Partly Cloudy
8:56 PM 48.2 °F - 24.8 °F 40% 30.31 in 10.0 mi North 9.2 mph 17.3 mph N/A   Partly Cloudy
9:16 PM 48.2 °F - 24.8 °F 40% 30.31 in 10.0 mi NNW 10.4 mph 17.3 mph N/A   Clear
9:36 PM 46.4 °F 41.1 °F 24.8 °F 43% 30.31 in 10.0 mi North 11.5 mph 16.1 mph N/A   Clear
9:56 PM 46.4 °F 42.4 °F 24.8 °F 43% 30.31 in 10.0 mi North 8.1 mph 16.1 mph N/A   Clear
10:16 PM 46.4 °F 41.9 °F 24.8 °F 43% 30.31 in 10.0 mi North 9.2 mph 17.3 mph N/A   Clear
10:36 PM 46.4 °F 41.1 °F 23.0 °F 40% 30.30 in 10.0 mi North 11.5 mph 20.7 mph N/A   Clear
10:56 PM 46.4 °F 41.9 °F 23.0 °F 40% 30.30 in 10.0 mi North 9.2 mph 18.4 mph N/A   Clear
11:16 PM 46.4 °F 42.4 °F 23.0 °F 40% 30.30 in 10.0 mi North 8.1 mph 19.6 mph N/A   Clear
11:36 PM 46.4 °F 42.9 °F 23.0 °F 40% 30.29 in 10.0 mi North 6.9 mph 23.0 mph N/A   Clear
11:56 PM 46.4 °F 42.9 °F 23.0 °F 40% 30.29 in 10.0 mi NNW 6.9 mph - N/A   Clear